FW1003 Weather Reports


Display with metric or nautical units.
time (UTC)temp
F
wind
direction
speed
MPH
gust
MPH
rain 1hr
in
rain 24hr
in
rain mn
in
humidity
%
barometer
mb
20260904000035 77 301 0.0 2.0 0.00 0.00 0.00 74 1010.6
20260903234535 77 301 0.0 1.0 0.00 0.00 0.00 73 1010.5
20260903233032 78 301 0.0 0.0 0.00 0.00 0.00 72 1010.5
20260903231528 78 301 0.0 0.0 0.00 0.00 0.00 72 1010.6
20260903230027 78 301 0.0 0.0 0.00 0.00 0.00 71 1010.7
20260903224527 79 300 0.0 0.0 0.00 0.00 0.00 70 1010.8
20260903223029 79 301 0.0 0.0 0.00 0.00 0.00 70 1010.8
20260903221520 80 301 0.0 0.0 0.00 0.00 0.00 70 1010.9
20260903220021 80 301 0.0 1.0 0.00 0.00 0.00 70 1010.7
20260903214516 81 301 0.0 2.0 0.00 0.00 0.00 70 1010.8
20260903213018 81 301 0.0 1.0 0.00 0.00 0.00 70 1010.8
20260903211530 81 301 0.0 0.0 0.00 0.00 0.00 69 1011.0
20260903210011 81 301 0.0 2.0 0.00 0.00 0.00 69 1011.1
20260903204510 82 301 0.0 1.0 0.00 0.00 0.00 70 1011.1
20260903203009 81 301 0.0 1.0 0.00 0.00 0.00 70 1011.1
20260903201509 81 301 0.0 1.0 0.00 0.00 0.00 69 1011.0
20260903200008 82 301 0.0 0.0 0.00 0.00 0.00 69 1011.0
20260903194508 82 301 0.0 0.0 0.00 0.00 0.00 69 1011.0
20260903193008 82 301 0.0 2.0 0.00 0.00 0.00 69 1011.0
20260903191513 82 301 0.0 1.0 0.00 0.00 0.00 68 1010.9
20260903190006 82 301 0.0 0.0 0.00 0.00 0.00 68 1011.0
20260903184506 83 300 0.0 2.0 0.00 0.00 0.00 68 1010.9
20260903183006 83 300 0.0 0.0 0.00 0.00 0.00 67 1011.0
20260903181504 83 300 0.0 1.0 0.00 0.00 0.00 67 1011.0
20260903180005 84 300 0.0 0.0 0.00 0.00 0.00 67 1010.8
20260903174510 84 300 0.0 1.0 0.00 0.00 0.00 67 1010.7
20260903173010 84 300 0.0 0.0 0.00 0.00 0.00 66 1010.7
20260903171503 84 300 0.0 2.0 0.00 0.00 0.00 66 1010.6
20260903170001 85 300 0.0 2.0 0.00 0.00 0.00 66 1010.4
20260903164502 85 300 0.0 1.0 0.00 0.00 0.00 66 1010.3
20260903163105 85 300 0.0 2.0 0.00 0.00 0.00 65 1010.3
20260903161600 86 300 0.0 2.0 0.00 0.00 0.00 64 1010.1
20260903160059 86 340 0.0 2.0 0.00 0.00 0.00 64 1010.1
20260903154600 87 340 0.0 4.0 0.00 0.00 0.00 64 1010.1
20260903153058 87 44 0.0 4.0 0.00 0.00 0.00 63 1010.0
20260903151559 87 304 0.0 4.0 0.00 0.00 0.00 63 1010.1
20260903150112 88 355 1.0 5.0 0.00 0.00 0.00 62 1010.0
20260903144557 89 298 1.0 5.0 0.00 0.00 0.00 60 1010.0
20260903143055 89 351 1.0 4.0 0.00 0.00 0.00 57 1009.9
20260903141554 90 313 1.0 5.0 0.00 0.00 0.00 56 1009.9
20260903140054 91 83 1.0 5.0 0.00 0.00 0.00 55 1009.8
20260903134655 92 112 0.0 8.0 0.00 0.00 0.00 54 1009.8
20260903133055 92 131 0.0 3.0 0.00 0.00 0.00 54 1009.8
20260903131557 92 161 2.0 5.0 0.00 0.00 0.00 54 1009.8
20260903130108 93 34 1.0 8.0 0.00 0.00 0.00 54 1009.9
20260903124553 93 309 2.0 9.0 0.00 0.00 0.00 52 1009.8
20260903123050 93 90 1.0 6.0 0.00 0.00 0.00 54 1009.9
20260903121549 93 65 1.0 5.0 0.00 0.00 0.00 50 1010.0
20260903120048 93 41 1.0 7.0 0.00 0.00 0.00 50 1010.1
20260903114548 94 36 1.0 6.0 0.00 0.00 0.00 50 1010.2
20260903113046 93 275 2.0 6.0 0.00 0.00 0.00 50 1010.2
20260903111615 93 275 1.0 6.0 0.00 0.00 0.00 52 1010.4
20260903110042 93 336 1.0 5.0 0.00 0.00 0.00 51 1010.6
20260903104552 93 132 2.0 5.0 0.00 0.00 0.00 52 1010.6
20260903103039 93 70 1.0 6.0 0.00 0.00 0.00 52 1010.7
20260903101543 93 34 1.0 8.0 0.00 0.00 0.00 54 1010.7
20260903100036 92 38 1.0 6.0 0.00 0.00 0.00 55 1010.9
20260903094535 93 130 2.0 7.0 0.00 0.00 0.00 55 1010.9
20260903093039 93 333 2.0 5.0 0.00 0.00 0.00 54 1010.9
20260903091533 93 18 2.0 6.0 0.00 0.00 0.00 55 1010.9
20260903090030 92 9 2.0 5.0 0.00 0.00 0.00 55 1011.1
20260903084532 92 244 1.0 6.0 0.00 0.00 0.00 56 1011.3
20260903083024 92 62 2.0 8.0 0.00 0.00 0.00 57 1011.4
20260903081521 92 183 2.0 5.0 0.00 0.00 0.00 56 1011.6
20260903080019 91 178 2.0 7.0 0.00 0.00 0.00 57 1011.6
20260903074516 91 200 2.0 7.0 0.00 0.00 0.00 58 1011.7
20260903073032 91 173 0.0 5.0 0.00 0.00 0.00 58 1011.6
20260903071509 89 165 2.0 6.0 0.00 0.00 0.00 61 1011.4
20260903070007 89 158 2.0 6.0 0.00 0.00 0.00 59 1011.7
20260903064505 89 192 1.0 3.0 0.00 0.00 0.00 62 1011.8
20260903063004 89 183 0.0 6.0 0.00 0.00 0.00 62 1011.7
20260903061611 89 264 0.0 2.0 0.00 0.00 0.00 61 1011.5
20260903060104 89 298 0.0 4.0 0.00 0.00 0.00 62 1011.5
20260903054555 87 34 3.0 8.0 0.00 0.00 0.00 65 1011.5
20260903053105 86 321 2.0 4.0 0.00 0.00 0.00 67 1011.8
20260903051548 85 315 1.0 2.0 0.00 0.00 0.00 68 1011.8
20260903050045 85 314 0.0 2.0 0.00 0.00 0.00 70 1011.7
20260903044541 83 315 1.0 2.0 0.00 0.00 0.00 72 1011.7
20260903043041 82 315 0.0 1.0 0.00 0.00 0.00 74 1011.8
20260903041539 81 315 0.0 0.0 0.00 0.00 0.00 75 1011.8
20260903040030 80 315 0.0 1.0 0.00 0.00 0.00 74 1011.8
20260903034526 79 315 0.0 1.0 0.00 0.00 0.00 74 1011.5
20260903033022 79 315 0.0 2.0 0.00 0.00 0.00 73 1011.5
20260903031518 80 315 0.0 1.0 0.00 0.00 0.00 73 1011.3
20260903030024 80 315 0.0 2.0 0.00 0.00 0.00 73 1011.4
20260903024516 80 315 0.0 1.0 0.00 0.00 0.00 73 1011.5
20260903023016 80 315 0.0 0.0 0.00 0.00 0.00 73 1011.4
20260903021515 80 315 0.0 0.0 0.00 0.00 0.00 73 1011.3
20260903020014 80 315 0.0 1.0 0.00 0.00 0.00 72 1011.3
20260903014514 80 315 0.0 0.0 0.00 0.00 0.00 72 1011.2
20260903013025 80 315 0.0 0.0 0.00 0.00 0.00 71 1011.2
20260903011515 80 315 0.0 0.0 0.00 0.00 0.00 72 1011.1
20260903010026 80 315 0.0 2.0 0.00 0.00 0.00 71 1011.1
20260903004511 80 315 0.0 0.0 0.00 0.00 0.00 71 1011.2
20260903003011 80 314 0.0 0.0 0.00 0.00 0.00 71 1011.3
20260903001510 80 315 0.0 0.0 0.00 0.00 0.00 71 1011.3